This demonstration page uses our WeatherBlox Daily Observations layout. Learn more.

Left ArrowRight Arrow

38.20091, -84.87328

Hourly Observations for January 28, 2015

Temp ( °F °C ) Dew Point ( °F °C ) Humidity (%) Winds ( mph kmh ) Pressure ( in mb ) Visibility ( mi km ) Precip ( " mm )
12:53 am 00:53 Clear 21 -6.1 11 -11.7 65 65 NNE 3 6 30.27 1025 10 16 0.00 0.00
1:53 am 01:53 Clear 17 -8.3 11 -11.7 77 77 Calm 30.28 1025 10 16 0.00 0.00
2:53 am 02:53 Clear 17 -8.3 10 -12.2 74 74 Calm 30.30 1026 10 16 0.00 0.00
3:53 am 03:53 Clear 14 -10 10 -12.2 84 84 Calm 30.30 1026 8 13 0.00 0.00
4:53 am 04:53 Clear 14 -10 11 -11.7 88 88 Calm 30.33 1027 7 11 0.00 0.00
5:53 am 05:53 Clear 14 -10 9 -12.8 80 80 Calm 30.35 1028 7 11 0.00 0.00
6:53 am 06:53 Clear with Mist and Fog 14 -10 10 -12.2 84 84 E 3 6 30.35 1028 6 10 0.00 0.00
7:53 am 07:53 Hazy 15 -9.4 10 -12.2 80 80 Calm 30.38 1029 5 8 0.00 0.00
8:53 am 08:53 Hazy 19 -7.2 14 -10 81 81 Calm 30.40 1029 6 10 0.00 0.00
9:53 am 09:53 Sunny 22 -5.6 14 -10 71 71 E 8 13 30.41 1030 10 16 0.00 0.00
10:53 am 10:53 Sunny 27 -2.8 15 -9.4 61 61 SE 10 17 30.40 1030 N/A 0.00 0.00
11:53 am 11:53 Sunny 30 -1.1 16 -8.9 56 56 undefined N/A 30.39 1029 10 16 0.00 0.00
12:53 pm 12:53 Sunny 33 0.6 16 -8.9 49 49 SE 10 17 30.35 1028 10 16 0.00 0.00
1:53 pm 13:53 Sunny 34 1.1 16 -8.9 48 48 E 10 17 30.32 1027 10 16 0.00 0.00
2:53 pm 14:53 Sunny 36 2.2 18 -7.8 48 48 SSE 9 15 30.29 1026 10 16 0.00 0.00
3:53 pm 15:53 Sunny 37 2.8 18 -7.8 46 46 SSE 9 15 30.28 1026 10 16 0.00 0.00
4:53 pm 16:53 Sunny 36 2.2 17 -8.3 46 46 SE 10 17 30.26 1025 10 16 0.00 0.00
5:53 pm 17:53 Sunny 34 1.1 18 -7.8 52 52 ESE 5 7 30.27 1025 10 16 0.00 0.00
6:53 pm 18:53 Clear 32 0 18 -7.8 56 56 ESE 5 7 30.25 1025 10 16 0.00 0.00
7:53 pm 19:53 Clear 32 0 19 -7.2 59 59 SE 3 6 30.25 1024 10 16 0.00 0.00
8:53 pm 20:53 Clear 31 -0.6 19 -7.2 61 61 SE 8 13 30.22 1024 10 16 0.00 0.00
9:53 pm 21:53 Clear 30 -1.1 19 -7.2 64 64 ESE 8 13 30.19 1022 10 16 0.00 0.00
10:53 pm 22:53 Clear 31 -0.6 20 -6.7 64 64 SE 7 11 30.16 1022 10 16 0.00 0.00
11:53 pm 23:53 Clear 32 0 20 -6.7 61 61 SE 7 11 30.14 1021 10 16 0.00 0.00

Powered by AerisWeather